Other Public Products
Issued by NWS Grand Forks, ND

Home | Current Version | Previous Version | Graphics & Text | Print | Product List | Glossary On
Versions: 1 2 3 4 5 6 7 8 9 10 11 12 13 14 15 16 17 18 19 20 21 22 23 24 25 26 27 28 29 30 31 32 33 34 35 36 37 38 39 40 41 42 43 44 45 46 47 48 49 50
000
FPUS83 KFGF 181631
OPUFGF
PRAIRIE TO PINES WEATHER ROUNDUP
NATIONAL WEATHER SERVICE EASTERN NORTH DAKOTA/GRAND FORKS ND
1100 AM CDT SAT APR 18 2015

 **SATELLITE DATA USED TO AUGMENT SKY COVER AT AUTOMATED STATIONS**
 *****  WEATHER ACROSS EASTERN NORTH DAKOTA  *****

CITY           SKY/WX    TMP DP  RH WIND       PRES   REMARKS
GRAND FORKS    MOSUNNY   54  32  43 SE8       30.08F
GRAND FORKS AF SUNNY     55  31  40 S7        30.07F
GRAND CITY NWS   N/A     57 N/A N/A SE9         N/A
BUXTON           N/A     57  36  44 CALM        N/A
DEVILS LAKE    SUNNY     54  32  43 SE12      30.03F
FARGO          MOSUNNY   62  30  29 SE12      30.06F
WAHPETON ARPT  SUNNY     63  27  25 E14G21    30.04F
$$

 *****  WEATHER ACROSS CENTRAL AND WESTERN NORTH DAKOTA  *****

CITY           SKY/WX    TMP DP  RH WIND       PRES   REMARKS
JAMESTOWN      PTSUNNY   55  27  34 SE14      30.02F
BISMARCK       CLOUDY    50  30  46 SE6       30.02F
MINOT          SUNNY     59  27  29 SE10      29.97F
MINOT AFB      SUNNY     58  30  34 S15       29.96F
GARRISON         N/A     56  28  34 S12       29.99F
WILLISTON      SUNNY     60  33  36 S6        29.94F
DICKINSON      SUNNY     62  35  36 SW7       29.96F
HETTINGER      CLOUDY    49  38  65 SE5       30.02R
$$

 *****  OTHER OBSERVATIONS NORTHEAST NORTH DAKOTA  *****

CITY           SKY/WX    TMP DP  RH WIND       PRES   REMARKS
WALHALLA       FAIR      52  32  46 S18       30.07F
LANGDON        FAIR      57  30  35 SE17G24   30.05F
CAVALIER       FAIR      52  32  46 SE13      30.08F
GRAFTON        FAIR      55  32  41 SE10      30.09F
CANDO          FAIR      55  32  41 S14       30.03F
FORT TOTTEN      N/A     56  32  40 S10       29.95S
ROLLA          FAIR      55  30  38 S14G20    30.02F
RUGBY          FAIR      55  30  38 SE15      30.00F
 ***** THE ABOVE OBSERVATIONS ARE NON NWS ARE NOT QUALITY
        CONTROLLED AND MAY MIS-REPORT RAIN FOR SNOW...
$$

 *****  OTHER OBSERVATIONS SOUTHEAST NORTH DAKOTA *****

CITY           SKY/WX    TMP DP  RH WIND       PRES   REMARKS
COOPERSTOWN    NOT AVBL
VALLEY CITY    FAIR      55  28  35 SE13      30.03F
OAKES            N/A     63  32  31 E13       30.01F
GWINNER        SUNNY     61  32  33 E14       30.03S
SHEYENNE NWR     N/A     60  28  29 SE13      29.95S
BUFFALO        NOT AVBL
WYNDMERE         N/A     63  28  27 SE12        N/A
 ***** THE ABOVE OBSERVATIONS ARE NON NWS ARE NOT QUALITY
       CONTROLLED AND MAY MIS-REPORT RAIN FOR SNOW...
$$

  *****  WEATHER ACROSS NORTHERN MINNESOTA  *****

CITY           SKY/WX    TMP DP  RH WIND       PRES   REMARKS
FLAG ISLAND    SUNNY     45  32  61 SE6       30.17S
WARROAD        SUNNY     46  34  61 E8        30.15F
ROSEAU         SUNNY     55  25  30 SE17      30.12F
HALLOCK        SUNNY     55  27  33 SE12G21   30.09F
THF RVR FALLS  SUNNY     54  30  40 SE13G20   30.10F
HALSTAD          N/A     61  32  33 SE9         N/A
FOSSTON        SUNNY     55  28  35 SE7       30.09F
BAUDETTE       SUNNY     52  25  35 SE17      30.17F
WASKISH        SUNNY     54  28  37 SE17      30.14F
CROOKSTON      SUNNY     57  30  35 SE10G16   30.08F
$$
  *****  WEATHER ACROSS CENTRAL AND WEST MINNESOTA  *****

CITY           SKY/WX    TMP DP  RH WIND       PRES   REMARKS
BEMIDJI        SUNNY     51  31  46 E12G17    30.12F
PARK RAPIDS    SUNNY     53  29  39 SE12      30.11F
WADENA         SUNNY     55  32  41 E10G17    30.08F
DETROIT LAKES  SUNNY     55  32  41 SE13      30.08F
MOORHEAD       SUNNY     63  28  27 SE9       30.05F
FERGUS FALLS   SUNNY     61  23  23 SE14      30.06F
ELBOW LAKE     FAIR      60  31  33 E13G20    30.04S
MORRIS MN      SUNNY     66  30  26 E16       30.02S
STAPLES        SUNNY     55  28  35 E8        30.09F
WHEATON        SUNNY     63  30  29 E10G17    30.04F
$$
  *****  WEATHER ELSEWHERE ACROSS MINNESOTA  *****

CITY           SKY/WX    TMP DP  RH WIND       PRES   REMARKS
DULUTH         SUNNY     46  32  58 E18G30    30.20S
INTRNTL FALLS  SUNNY     50  28  42 E10       30.20F
ELY            SUNNY     50  19  29 SE14      30.21S
CLOQUET        SUNNY     46  30  53 E13G22    30.18F
BRAINERD       MOSUNNY   52  30  43 E9        30.13F
HIBBING        SUNNY     52  27  38 SE10      30.19S
ALEXANDRIA     SUNNY     59  31  34 E16       30.07F
SAINT CLOUD    SUNNY     59  31  34 E9        30.08F
MINNEAPOLIS    PTSUNNY   63  32  31 E14       30.07F
$$

  *****  WEATHER ACROSS SOUTH DAKOTA  *****

CITY           SKY/WX    TMP DP  RH WIND       PRES   REMARKS
SIOUX FALLS    CLOUDY    58  40  51 E10       29.95F
BROOKINGS      CLOUDY    66  27  22 E16G22    29.98F
WATERTOWN      PTSUNNY   65  26  23 SE16G23   30.00S
HURON          PTSUNNY   66  26  22 SE10G20   29.96S
SISSETON         N/A     60  29  30 SE10      30.02F
ABERDEEN       PTSUNNY   69  26  20 E12       29.99F
MITCHELL       LGT RAIN  61  33  35 SE12      29.95F
PIERRE         CLOUDY    50  41  71 NE9       29.96F
MOBRIDGE       PTSUNNY   61  28  28 CALM      29.97F
RAPID CITY     CLOUDY    52  44  74 NE7       29.98F
$$

  *****  SOME WEATHER IN NEARBY STATES *****

CITY           SKY/WX    TMP DP  RH WIND       PRES   REMARKS
GLASGOW MT     MOSUNNY   54  34  46 NW24      29.96R
GREAT FALLS MT LGT RAIN  36  34  92 N21G29    30.23R FOG
CHEYENNE WY    CLOUDY    36  33  89 N12       29.93S
SCOTTSBLUFF NE CLOUDY    49  32  52 W3        29.93S
OMAHA NE       LGT RAIN  61  59  93 S5        29.94R FOG
DES MOINES IA  PTSUNNY   70  56  61 E12       29.95F
DAVENPORT IA   MOSUNNY   73  51  46 SE12      30.01F
CHICAGO IL     PTSUNNY   55  38  52 NE14      30.10S
EAU CLAIRE WI  MOSUNNY   62  30  29 E10       30.10F
LA CROSSE WI   MOSUNNY   66  34  30 E9        30.07F
$$

  *****  SOME NATIONAL WEATHER *****

CITY           SKY/WX    TMP DP  RH WIND       PRES   REMARKS
LA GUARDIA NY  MOSUNNY   70  41  34 NW7       29.97F
RALEIGH NC     PTSUNNY   75  61  61 E6        30.02S
ATLANTA GA     CLOUDY    67  62  84 E7        30.00R
NEW ORLEANS LA CLOUDY    72  67  84 SE8       29.92F
OKLAHOMA CITY  CLOUDY    68  57  68 SE6       29.93R
ALBUQUERQUE NM PTSUNNY   48  30  49 NW8       30.03R
SALT LAKE CITY SUNNY     54  36  50 E3        30.04S
LOS ANGELES CA MOSUNNY   64  45  49 SE5       30.02F
BOISE ID       SUNNY     58  35  42 NW16      30.12S
SEATTLE WA     SUNNY     52  40  63 N10       30.36F
$$

*** WEATHER ACROSS MANITOBA...SASKATCHEWAN AND ONTARIO ***
                ***ONTARIO***

CITY           SKY/WX    TMP DP  RH WIND       PRES   REMARKS
GERALDTON      MOSUNNY   41  30  65 NE8       30.29R
THUNDER BAY    SUNNY     48  30  49 E12       30.28S
SIOUX LOOKOUT  MOSUNNY   50  27  40 E6        30.23F
TORONTO        MOSUNNY   63  32  31 N28G36    30.03R
BIG TROUT LK   SUNNY     37  28  70 S5        30.26F
PICKLE LAKE    MOSUNNY   45  28  53 CALM      30.25F
DRYDEN         SUNNY     52  25  35 E12G18    30.20F
KENORA         MOSUNNY   50  23  34 SE14G22   30.18F
$$
                *** MANITOBA***

CITY           SKY/WX    TMP DP  RH WIND       PRES   REMARKS
BRANDON        MOSUNNY   52  34  50 S13G18    30.01F
DAUPHIN        PTSUNNY   59  30  33 S10       29.94F
ISLAND LAKE    PTSUNNY   43  34  70 SE10      30.15F
PILOT MOUND      N/A     54  30  40 S17G23      N/A
THE PAS        LGT RAIN  39  34  81 S7        29.88R
THOMPSON       CLOUDY    39  32  75 SE3       30.04F
WINNIPEG       MOSUNNY   54  27  35 S25G31    30.10F
CHURCHILL      PTSUNNY   21   9  58 E10       30.28S WCI  10
GILLAM         CLOUDY    32  30  93 E8        30.17F WCI  25
$$
                ***SASKATCHEWAN***

CITY           SKY/WX    TMP DP  RH WIND       PRES   REMARKS
ESTEVAN        MOSUNNY   61  30  31 S15       29.91F
KINDERSLEY     PTSUNNY   43  30  61 NW25G39   30.07S
LLOYDMINSTER   LGT RAIN  39  34  81 NW23G31   30.03S
PRINCE ALBERT  PTSUNNY   48  39  71 NW16G28   29.88R
REGINA         PTSUNNY   52  39  62 NW20      29.94R
YORKTON        LGT RAIN  52  32  46 SW14G22   29.88R



USA.gov is the U.S. government's official web portal to all federal, state and local government web resources and services.